Tracking 28794 objects as of 19-Apr-2024
HD Live streaming from Space Station
objects crossing your sky now

CZ-6A DEB

Track CZ-6A DEB now!
10-day predictions


NORAD ID: 54606
Int'l Code: 2022-151NG
Perigee: 786.4 km
Apogee: 896.5 km
Inclination: 98.8 °
Period: 101.6 minutes
Semi major axis: 7212 km
RCS: Unknown
Launch date: November 11, 2022
Source: People's Republic of China (PRC)
Launch site: Taiyaun Space Center, China (TSC)

Note: This is SATELLITE DEBRIS
Your satellite tracking list
Your tracking list is empty




NASA's NSSDC Master Catalog

Two Line Element Set (TLE):
1 54606U 22151NG  24109.94093692  .00017198  00000-0  82642-2 0  9990
2 54606  98.8247 118.1956 0076299  88.3871 272.6042 14.17350689 73333
Source of the keplerian elements: AFSPC